Weather History for McCall, ID

Change the Weather History Date:

Sunday, May 5, 2013

  Actual Average Record
Temperature  
Mean Temperature 49 °F 43 °F  
Max Temperature 67 °F 56 °F 82 °F (1966)
Min Temperature 31 °F 30 °F 20 °F (1977)
Degree Days  
Heating Degree Days 16 22  
Month to date heating degree days 102 113  
Since 1 July heating degree days 7993 8748  
Cooling Degree Days 0 0  
Month to date cooling degree days 0 0  
Year to date cooling degree days 0 0  
Moisture  
Dew Point 29 °F    
Average Humidity 47    
Maximum Humidity 75    
Minimum Humidity 19    
Precipitation  
Precipitation 0.02 in 0.06 in 0.52 in (1964)
Month to date precipitation 0.02 0.33  
Year to date precipitation 7.64 7.92  
Sea Level Pressure  
Sea Level Pressure 29.91 in    
Wind  
Wind Speed 4 mph (NE)    
Max Wind Speed 24 mph    
Max Gust Speed 29 mph    
Visibility 10 miles    
Events Rain    
T = Trace of Precipitation, MM = Missing Value Source: NWS Daily Summary

Daily Weather History Graph

Daily Weather History Graph

Search for Another Location

Airport:

Trip Planner

Search our weather history database for the weather conditions in past years. The results will help you decide how hot, cold, wet, or windy it might be!

Date:

Astronomy

May. 05, 2013 Rise Set
Actual Time 6:27 AM MDT 8:55 PM MDT
Civil Twilight 5:54 AM MDT 9:28 PM MDT
Nautical Twilight 5:14 AM MDT 10:09 PM MDT
Astronomical Twilight 4:27 AM MDT 10:55 PM MDT
Moon 4:11 AM MDT (5/5) 4:49 PM MDT (5/5)
Length of Visible Light 15h 33m
Length of Day
14h 27m
Waning Crescent, 17% of the Moon is Illuminated
May 5
Waning Crescent
May 9
New
May 17
First Quarter
May 24
Full
May 31
Last Quarter

Hourly Weather History & Observations

Time (MDT) Temp. Windchill Dew Point Humidity Pressure Visibility Wind Dir Wind Speed Gust Speed Precip Events Conditions
12:51 AM 46.9 °F - 27.0 °F 46% 29.95 in 10.0 mi ENE 5.8 mph - N/A   Clear
1:51 AM 46.9 °F - 27.0 °F 46% 29.95 in 10.0 mi NNE 6.9 mph - N/A   Clear
2:51 AM 39.9 °F - 28.0 °F 63% 29.96 in 10.0 mi Calm Calm - N/A   Clear
3:51 AM 37.0 °F - 28.0 °F 70% 29.96 in 10.0 mi Calm Calm - N/A   Clear
4:51 AM 34.0 °F - 27.0 °F 75% 29.97 in 10.0 mi Calm Calm - N/A   Clear
5:51 AM 33.1 °F - 26.1 °F 75% 29.96 in 10.0 mi Calm Calm - N/A   Clear
6:51 AM 33.1 °F - 26.1 °F 75% 29.96 in 10.0 mi Calm Calm - N/A   Clear
7:51 AM 39.9 °F - 30.0 °F 68% 29.95 in 10.0 mi Calm Calm - N/A   Clear
8:51 AM 46.9 °F - 32.0 °F 56% 29.93 in 10.0 mi Calm Calm - N/A   Clear
9:51 AM 52.0 °F - 30.9 °F 45% 29.92 in 10.0 mi Calm Calm - N/A   Clear
10:51 AM 55.9 °F - 30.9 °F 39% 29.90 in 10.0 mi Variable 4.6 mph - N/A   Clear
11:51 AM 59.0 °F - 30.0 °F 33% 29.89 in 10.0 mi Variable 3.5 mph - N/A   Clear
12:51 PM 61.0 °F - 28.9 °F 30% 29.88 in 10.0 mi Variable 3.5 mph - N/A   Clear
1:51 PM 62.1 °F - 28.0 °F 28% 29.86 in 10.0 mi North 4.6 mph - N/A   Mostly Cloudy
2:51 PM 64.9 °F - 27.0 °F 24% 29.86 in 10.0 mi NNW 6.9 mph - N/A   Scattered Clouds
3:51 PM 64.9 °F - 23.0 °F 20% 29.86 in 10.0 mi Variable 4.6 mph - N/A   Scattered Clouds
4:51 PM 66.9 °F - 23.0 °F 19% 29.85 in 10.0 mi NNW 10.4 mph - N/A   Partly Cloudy
5:51 PM 55.9 °F - 37.9 °F 51% 29.89 in 8.0 mi South 17.3 mph 28.8 mph 0.01 in Rain Light Rain
6:01 PM 57.2 °F - 33.8 °F 41% 29.92 in 10.0 mi SW 10.4 mph 27.6 mph 0.01 in Rain Light Rain
6:51 PM 60.1 °F - 30.9 °F 33% 29.88 in 10.0 mi Calm Calm - 0.01 in   Scattered Clouds
7:51 PM 57.9 °F - 33.1 °F 39% 29.87 in 10.0 mi SSE 5.8 mph - N/A   Clear
8:51 PM 57.9 °F - 32.0 °F 37% 29.86 in 10.0 mi Calm Calm - N/A   Partly Cloudy
9:51 PM 54.0 °F - 30.0 °F 40% 29.87 in 10.0 mi ENE 6.9 mph - N/A   Clear
10:51 PM 48.0 °F - 30.9 °F 52% 29.87 in 10.0 mi Variable 3.5 mph - N/A   Clear
11:51 PM 45.0 °F 41.8 °F 30.9 °F 58% 29.88 in 10.0 mi ENE 5.8 mph - N/A   Clear